Location: Fensholt
(55.9856°N, 10.0808°E)
Time: 10:20:11
(UTC+00:00)

Cosmos 1400 Rocket - Pass Details

Date: 07 June 2020
Orbit: 522 x 568 km, 81.2° (Epoch: 05 July)

Event Time Altitude Azimuth Distance (km) Brightness Sun altitude
Rises 23:58:50 0° 347° (NNW) 2,783 7.8 -10.8°
Reaches altitude 10° 00:01:03 10° 350° (N) 1,882 6.8 -10.7°
Maximum altitude 00:05:11 63° 72° (ENE) 643 3.3 -10.6°
Drops below altitude 10° 00:09:17 10° 154° (SSE) 1,864 5.0 -10.5°
Enters shadow 00:09:29 - 155° (SSE) 1,943 5.1 -10.5°
